<?xml version="1.0"?>
<gpx xmlns="http://www.topografix.com/GPX/1/1" xmlns:xsi="http://www.w3.org/2001/XMLSchema-instance" version="1.1" creator="GPX RubyGem 1.0.0 -- http://dougfales.github.io/gpx/" xsi:schemaLocation="http://www.topografix.com/GPX/1/1 http://www.topografix.com/GPX/1/1/gpx.xsd">
  <metadata>
    <name/>
    <time>2026-05-07T10:10:15+00:00</time>
    <bound minlat="90.0" minlon="180.0" maxlat="-90.0" maxlon="-180.0"/>
  </metadata>
  <trk>
    <name/>
    <trkseg>
      <trkpt lat="45.921416" lon="11.190397">
        <time>1970-01-01T00:00:00+00:00</time>
        <ele>1263.0</ele>
      </trkpt>
      <trkpt lat="45.921315" lon="11.190339">
        <time>1970-01-01T00:00:00+00:00</time>
        <ele>1261.0</ele>
      </trkpt>
      <trkpt lat="45.921089" lon="11.190315">
        <time>1970-01-01T00:00:00+00:00</time>
        <ele>1259.0</ele>
      </trkpt>
      <trkpt lat="45.920987" lon="11.19034">
        <time>1970-01-01T00:00:00+00:00</time>
        <ele>1257.0</ele>
      </trkpt>
      <trkpt lat="45.920825" lon="11.19026">
        <time>1970-01-01T00:00:00+00:00</time>
        <ele>1256.0</ele>
      </trkpt>
      <trkpt lat="45.920796" lon="11.190168">
        <time>1970-01-01T00:00:00+00:00</time>
        <ele>1256.0</ele>
      </trkpt>
      <trkpt lat="45.92074" lon="11.190059">
        <time>1970-01-01T00:00:00+00:00</time>
        <ele>1255.0</ele>
      </trkpt>
      <trkpt lat="45.920971" lon="11.189893">
        <time>1970-01-01T00:00:00+00:00</time>
        <ele>1257.0</ele>
      </trkpt>
      <trkpt lat="45.921148" lon="11.189985">
        <time>1970-01-01T00:00:00+00:00</time>
        <ele>1259.0</ele>
      </trkpt>
      <trkpt lat="45.921403" lon="11.19022">
        <time>1970-01-01T00:00:00+00:00</time>
        <ele>1262.0</ele>
      </trkpt>
      <trkpt lat="45.921918" lon="11.190599">
        <time>1970-01-01T00:00:00+00:00</time>
        <ele>1267.0</ele>
      </trkpt>
      <trkpt lat="45.922127" lon="11.190694">
        <time>1970-01-01T00:00:00+00:00</time>
        <ele>1270.0</ele>
      </trkpt>
      <trkpt lat="45.922281" lon="11.190719">
        <time>1970-01-01T00:00:00+00:00</time>
        <ele>1272.0</ele>
      </trkpt>
      <trkpt lat="45.922346" lon="11.190741">
        <time>1970-01-01T00:00:00+00:00</time>
        <ele>1273.0</ele>
      </trkpt>
      <trkpt lat="45.922432" lon="11.190715">
        <time>1970-01-01T00:00:00+00:00</time>
        <ele>1274.0</ele>
      </trkpt>
      <trkpt lat="45.922602" lon="11.190747">
        <time>1970-01-01T00:00:00+00:00</time>
        <ele>1277.0</ele>
      </trkpt>
      <trkpt lat="45.922821" lon="11.190846">
        <time>1970-01-01T00:00:00+00:00</time>
        <ele>1282.0</ele>
      </trkpt>
      <trkpt lat="45.922983" lon="11.190883">
        <time>1970-01-01T00:00:00+00:00</time>
        <ele>1285.0</ele>
      </trkpt>
      <trkpt lat="45.923095" lon="11.190988">
        <time>1970-01-01T00:00:00+00:00</time>
        <ele>1288.0</ele>
      </trkpt>
      <trkpt lat="45.923174" lon="11.191109">
        <time>1970-01-01T00:00:00+00:00</time>
        <ele>1292.0</ele>
      </trkpt>
      <trkpt lat="45.923283" lon="11.191207">
        <time>1970-01-01T00:00:00+00:00</time>
        <ele>1295.0</ele>
      </trkpt>
      <trkpt lat="45.923419" lon="11.191286">
        <time>1970-01-01T00:00:00+00:00</time>
        <ele>1298.0</ele>
      </trkpt>
      <trkpt lat="45.923589" lon="11.191426">
        <time>1970-01-01T00:00:00+00:00</time>
        <ele>1304.0</ele>
      </trkpt>
      <trkpt lat="45.92397" lon="11.191612">
        <time>1970-01-01T00:00:00+00:00</time>
        <ele>1314.0</ele>
      </trkpt>
      <trkpt lat="45.924192" lon="11.191676">
        <time>1970-01-01T00:00:00+00:00</time>
        <ele>1321.0</ele>
      </trkpt>
      <trkpt lat="45.924383" lon="11.191698">
        <time>1970-01-01T00:00:00+00:00</time>
        <ele>1327.0</ele>
      </trkpt>
      <trkpt lat="45.924583" lon="11.191644">
        <time>1970-01-01T00:00:00+00:00</time>
        <ele>1334.0</ele>
      </trkpt>
      <trkpt lat="45.924714" lon="11.191571">
        <time>1970-01-01T00:00:00+00:00</time>
        <ele>1337.0</ele>
      </trkpt>
      <trkpt lat="45.92481" lon="11.191358">
        <time>1970-01-01T00:00:00+00:00</time>
        <ele>1339.0</ele>
      </trkpt>
      <trkpt lat="45.924814" lon="11.191131">
        <time>1970-01-01T00:00:00+00:00</time>
        <ele>1340.0</ele>
      </trkpt>
      <trkpt lat="45.924596" lon="11.190282">
        <time>1970-01-01T00:00:00+00:00</time>
        <ele>1347.0</ele>
      </trkpt>
      <trkpt lat="45.924542" lon="11.190001">
        <time>1970-01-01T00:00:00+00:00</time>
        <ele>1350.0</ele>
      </trkpt>
      <trkpt lat="45.924537" lon="11.189806">
        <time>1970-01-01T00:00:00+00:00</time>
        <ele>1354.0</ele>
      </trkpt>
      <trkpt lat="45.924614" lon="11.189761">
        <time>1970-01-01T00:00:00+00:00</time>
        <ele>1357.0</ele>
      </trkpt>
      <trkpt lat="45.924755" lon="11.189809">
        <time>1970-01-01T00:00:00+00:00</time>
        <ele>1360.0</ele>
      </trkpt>
      <trkpt lat="45.924922" lon="11.189979">
        <time>1970-01-01T00:00:00+00:00</time>
        <ele>1365.0</ele>
      </trkpt>
      <trkpt lat="45.925278" lon="11.190266">
        <time>1970-01-01T00:00:00+00:00</time>
        <ele>1382.0</ele>
      </trkpt>
      <trkpt lat="45.925518" lon="11.190408">
        <time>1970-01-01T00:00:00+00:00</time>
        <ele>1391.0</ele>
      </trkpt>
      <trkpt lat="45.925741" lon="11.19043">
        <time>1970-01-01T00:00:00+00:00</time>
        <ele>1400.0</ele>
      </trkpt>
      <trkpt lat="45.926603" lon="11.190411">
        <time>1970-01-01T00:00:00+00:00</time>
        <ele>1431.0</ele>
      </trkpt>
      <trkpt lat="45.92682" lon="11.19045">
        <time>1970-01-01T00:00:00+00:00</time>
        <ele>1439.0</ele>
      </trkpt>
      <trkpt lat="45.927018" lon="11.190522">
        <time>1970-01-01T00:00:00+00:00</time>
        <ele>1443.0</ele>
      </trkpt>
      <trkpt lat="45.927143" lon="11.190666">
        <time>1970-01-01T00:00:00+00:00</time>
        <ele>1445.0</ele>
      </trkpt>
      <trkpt lat="45.927186" lon="11.191081">
        <time>1970-01-01T00:00:00+00:00</time>
        <ele>1449.0</ele>
      </trkpt>
      <trkpt lat="45.927264" lon="11.191298">
        <time>1970-01-01T00:00:00+00:00</time>
        <ele>1456.0</ele>
      </trkpt>
      <trkpt lat="45.927312" lon="11.19079">
        <time>1970-01-01T00:00:00+00:00</time>
        <ele>1449.0</ele>
      </trkpt>
      <trkpt lat="45.927261" lon="11.190656">
        <time>1970-01-01T00:00:00+00:00</time>
        <ele>1448.0</ele>
      </trkpt>
      <trkpt lat="45.927189" lon="11.190553">
        <time>1970-01-01T00:00:00+00:00</time>
        <ele>1448.0</ele>
      </trkpt>
      <trkpt lat="45.926715" lon="11.188736">
        <time>1970-01-01T00:00:00+00:00</time>
        <ele>1471.0</ele>
      </trkpt>
      <trkpt lat="45.926741" lon="11.187385">
        <time>1970-01-01T00:00:00+00:00</time>
        <ele>1489.0</ele>
      </trkpt>
      <trkpt lat="45.926641" lon="11.186957">
        <time>1970-01-01T00:00:00+00:00</time>
        <ele>1490.0</ele>
      </trkpt>
      <trkpt lat="45.926446" lon="11.186465">
        <time>1970-01-01T00:00:00+00:00</time>
        <ele>1492.0</ele>
      </trkpt>
      <trkpt lat="45.926352" lon="11.185969">
        <time>1970-01-01T00:00:00+00:00</time>
        <ele>1498.0</ele>
      </trkpt>
      <trkpt lat="45.92632" lon="11.185723">
        <time>1970-01-01T00:00:00+00:00</time>
        <ele>1504.0</ele>
      </trkpt>
      <trkpt lat="45.925959" lon="11.185489">
        <time>1970-01-01T00:00:00+00:00</time>
        <ele>1493.0</ele>
      </trkpt>
      <trkpt lat="45.925863" lon="11.18535">
        <time>1970-01-01T00:00:00+00:00</time>
        <ele>1491.0</ele>
      </trkpt>
      <trkpt lat="45.925786" lon="11.185009">
        <time>1970-01-01T00:00:00+00:00</time>
        <ele>1496.0</ele>
      </trkpt>
      <trkpt lat="45.925786" lon="11.185009">
        <time>1970-01-01T00:00:00+00:00</time>
        <ele>1496.0</ele>
      </trkpt>
      <trkpt lat="45.925863" lon="11.18535">
        <time>1970-01-01T00:00:00+00:00</time>
        <ele>1491.0</ele>
      </trkpt>
      <trkpt lat="45.925959" lon="11.185489">
        <time>1970-01-01T00:00:00+00:00</time>
        <ele>1493.0</ele>
      </trkpt>
      <trkpt lat="45.92632" lon="11.185723">
        <time>1970-01-01T00:00:00+00:00</time>
        <ele>1504.0</ele>
      </trkpt>
      <trkpt lat="45.926352" lon="11.185969">
        <time>1970-01-01T00:00:00+00:00</time>
        <ele>1498.0</ele>
      </trkpt>
      <trkpt lat="45.926446" lon="11.186465">
        <time>1970-01-01T00:00:00+00:00</time>
        <ele>1492.0</ele>
      </trkpt>
      <trkpt lat="45.926641" lon="11.186957">
        <time>1970-01-01T00:00:00+00:00</time>
        <ele>1490.0</ele>
      </trkpt>
      <trkpt lat="45.926741" lon="11.187385">
        <time>1970-01-01T00:00:00+00:00</time>
        <ele>1489.0</ele>
      </trkpt>
      <trkpt lat="45.926715" lon="11.188736">
        <time>1970-01-01T00:00:00+00:00</time>
        <ele>1471.0</ele>
      </trkpt>
      <trkpt lat="45.927189" lon="11.190553">
        <time>1970-01-01T00:00:00+00:00</time>
        <ele>1448.0</ele>
      </trkpt>
      <trkpt lat="45.927047" lon="11.190454">
        <time>1970-01-01T00:00:00+00:00</time>
        <ele>1445.0</ele>
      </trkpt>
      <trkpt lat="45.926623" lon="11.189926">
        <time>1970-01-01T00:00:00+00:00</time>
        <ele>1442.0</ele>
      </trkpt>
      <trkpt lat="45.926008" lon="11.189472">
        <time>1970-01-01T00:00:00+00:00</time>
        <ele>1433.0</ele>
      </trkpt>
      <trkpt lat="45.925601" lon="11.189269">
        <time>1970-01-01T00:00:00+00:00</time>
        <ele>1425.0</ele>
      </trkpt>
      <trkpt lat="45.925418" lon="11.188588">
        <time>1970-01-01T00:00:00+00:00</time>
        <ele>1426.0</ele>
      </trkpt>
      <trkpt lat="45.925381" lon="11.188397">
        <time>1970-01-01T00:00:00+00:00</time>
        <ele>1426.0</ele>
      </trkpt>
      <trkpt lat="45.925276" lon="11.188201">
        <time>1970-01-01T00:00:00+00:00</time>
        <ele>1424.0</ele>
      </trkpt>
      <trkpt lat="45.925238" lon="11.18796">
        <time>1970-01-01T00:00:00+00:00</time>
        <ele>1425.0</ele>
      </trkpt>
      <trkpt lat="45.925101" lon="11.187864">
        <time>1970-01-01T00:00:00+00:00</time>
        <ele>1418.0</ele>
      </trkpt>
      <trkpt lat="45.925083" lon="11.187791">
        <time>1970-01-01T00:00:00+00:00</time>
        <ele>1418.0</ele>
      </trkpt>
      <trkpt lat="45.924959" lon="11.187609">
        <time>1970-01-01T00:00:00+00:00</time>
        <ele>1412.0</ele>
      </trkpt>
      <trkpt lat="45.924943" lon="11.187545">
        <time>1970-01-01T00:00:00+00:00</time>
        <ele>1412.0</ele>
      </trkpt>
      <trkpt lat="45.924956" lon="11.187449">
        <time>1970-01-01T00:00:00+00:00</time>
        <ele>1413.0</ele>
      </trkpt>
      <trkpt lat="45.924915" lon="11.186884">
        <time>1970-01-01T00:00:00+00:00</time>
        <ele>1414.0</ele>
      </trkpt>
      <trkpt lat="45.924876" lon="11.18683">
        <time>1970-01-01T00:00:00+00:00</time>
        <ele>1412.0</ele>
      </trkpt>
      <trkpt lat="45.924699" lon="11.186684">
        <time>1970-01-01T00:00:00+00:00</time>
        <ele>1407.0</ele>
      </trkpt>
      <trkpt lat="45.92456" lon="11.186638">
        <time>1970-01-01T00:00:00+00:00</time>
        <ele>1402.0</ele>
      </trkpt>
      <trkpt lat="45.924522" lon="11.186561">
        <time>1970-01-01T00:00:00+00:00</time>
        <ele>1401.0</ele>
      </trkpt>
      <trkpt lat="45.924385" lon="11.186392">
        <time>1970-01-01T00:00:00+00:00</time>
        <ele>1395.0</ele>
      </trkpt>
      <trkpt lat="45.924147" lon="11.185891">
        <time>1970-01-01T00:00:00+00:00</time>
        <ele>1390.0</ele>
      </trkpt>
      <trkpt lat="45.924056" lon="11.185467">
        <time>1970-01-01T00:00:00+00:00</time>
        <ele>1392.0</ele>
      </trkpt>
      <trkpt lat="45.923862" lon="11.185353">
        <time>1970-01-01T00:00:00+00:00</time>
        <ele>1385.0</ele>
      </trkpt>
      <trkpt lat="45.923672" lon="11.185189">
        <time>1970-01-01T00:00:00+00:00</time>
        <ele>1380.0</ele>
      </trkpt>
      <trkpt lat="45.923561" lon="11.184934">
        <time>1970-01-01T00:00:00+00:00</time>
        <ele>1382.0</ele>
      </trkpt>
      <trkpt lat="45.92352" lon="11.184898">
        <time>1970-01-01T00:00:00+00:00</time>
        <ele>1382.0</ele>
      </trkpt>
      <trkpt lat="45.923494" lon="11.184807">
        <time>1970-01-01T00:00:00+00:00</time>
        <ele>1382.0</ele>
      </trkpt>
      <trkpt lat="45.92339" lon="11.184611">
        <time>1970-01-01T00:00:00+00:00</time>
        <ele>1380.0</ele>
      </trkpt>
      <trkpt lat="45.923203" lon="11.184538">
        <time>1970-01-01T00:00:00+00:00</time>
        <ele>1372.0</ele>
      </trkpt>
      <trkpt lat="45.922968" lon="11.184638">
        <time>1970-01-01T00:00:00+00:00</time>
        <ele>1364.0</ele>
      </trkpt>
      <trkpt lat="45.922911" lon="11.184629">
        <time>1970-01-01T00:00:00+00:00</time>
        <ele>1363.0</ele>
      </trkpt>
      <trkpt lat="45.922788" lon="11.184729">
        <time>1970-01-01T00:00:00+00:00</time>
        <ele>1358.0</ele>
      </trkpt>
      <trkpt lat="45.922753" lon="11.184802">
        <time>1970-01-01T00:00:00+00:00</time>
        <ele>1357.0</ele>
      </trkpt>
      <trkpt lat="45.922569" lon="11.184829">
        <time>1970-01-01T00:00:00+00:00</time>
        <ele>1351.0</ele>
      </trkpt>
      <trkpt lat="45.922398" lon="11.18482">
        <time>1970-01-01T00:00:00+00:00</time>
        <ele>1344.0</ele>
      </trkpt>
      <trkpt lat="45.922322" lon="11.18477">
        <time>1970-01-01T00:00:00+00:00</time>
        <ele>1342.0</ele>
      </trkpt>
      <trkpt lat="45.922075" lon="11.184788">
        <time>1970-01-01T00:00:00+00:00</time>
        <ele>1335.0</ele>
      </trkpt>
      <trkpt lat="45.921894" lon="11.184715">
        <time>1970-01-01T00:00:00+00:00</time>
        <ele>1333.0</ele>
      </trkpt>
      <trkpt lat="45.921821" lon="11.184729">
        <time>1970-01-01T00:00:00+00:00</time>
        <ele>1331.0</ele>
      </trkpt>
      <trkpt lat="45.921789" lon="11.184756">
        <time>1970-01-01T00:00:00+00:00</time>
        <ele>1331.0</ele>
      </trkpt>
      <trkpt lat="45.921686" lon="11.184751">
        <time>1970-01-01T00:00:00+00:00</time>
        <ele>1331.0</ele>
      </trkpt>
      <trkpt lat="45.921682" lon="11.185113">
        <time>1970-01-01T00:00:00+00:00</time>
        <ele>1323.0</ele>
      </trkpt>
      <trkpt lat="45.921709" lon="11.185389">
        <time>1970-01-01T00:00:00+00:00</time>
        <ele>1316.0</ele>
      </trkpt>
      <trkpt lat="45.921769" lon="11.1856">
        <time>1970-01-01T00:00:00+00:00</time>
        <ele>1311.0</ele>
      </trkpt>
      <trkpt lat="45.921952" lon="11.185889">
        <time>1970-01-01T00:00:00+00:00</time>
        <ele>1305.0</ele>
      </trkpt>
      <trkpt lat="45.922296" lon="11.18619">
        <time>1970-01-01T00:00:00+00:00</time>
        <ele>1304.0</ele>
      </trkpt>
      <trkpt lat="45.922613" lon="11.187216">
        <time>1970-01-01T00:00:00+00:00</time>
        <ele>1300.0</ele>
      </trkpt>
      <trkpt lat="45.921949" lon="11.187701">
        <time>1970-01-01T00:00:00+00:00</time>
        <ele>1278.0</ele>
      </trkpt>
      <trkpt lat="45.92173" lon="11.187758">
        <time>1970-01-01T00:00:00+00:00</time>
        <ele>1272.0</ele>
      </trkpt>
      <trkpt lat="45.921425" lon="11.187918">
        <time>1970-01-01T00:00:00+00:00</time>
        <ele>1265.0</ele>
      </trkpt>
      <trkpt lat="45.920762" lon="11.188649">
        <time>1970-01-01T00:00:00+00:00</time>
        <ele>1253.0</ele>
      </trkpt>
      <trkpt lat="45.920317" lon="11.18886">
        <time>1970-01-01T00:00:00+00:00</time>
        <ele>1252.0</ele>
      </trkpt>
      <trkpt lat="45.920441" lon="11.189296">
        <time>1970-01-01T00:00:00+00:00</time>
        <ele>1252.0</ele>
      </trkpt>
      <trkpt lat="45.920651" lon="11.189868">
        <time>1970-01-01T00:00:00+00:00</time>
        <ele>1255.0</ele>
      </trkpt>
      <trkpt lat="45.92074" lon="11.190059">
        <time>1970-01-01T00:00:00+00:00</time>
        <ele>1255.0</ele>
      </trkpt>
      <trkpt lat="45.920796" lon="11.190168">
        <time>1970-01-01T00:00:00+00:00</time>
        <ele>1256.0</ele>
      </trkpt>
      <trkpt lat="45.920825" lon="11.19026">
        <time>1970-01-01T00:00:00+00:00</time>
        <ele>1256.0</ele>
      </trkpt>
      <trkpt lat="45.920987" lon="11.19034">
        <time>1970-01-01T00:00:00+00:00</time>
        <ele>1257.0</ele>
      </trkpt>
      <trkpt lat="45.921089" lon="11.190315">
        <time>1970-01-01T00:00:00+00:00</time>
        <ele>1259.0</ele>
      </trkpt>
      <trkpt lat="45.921315" lon="11.190339">
        <time>1970-01-01T00:00:00+00:00</time>
        <ele>1261.0</ele>
      </trkpt>
      <trkpt lat="45.921416" lon="11.190397">
        <time>1970-01-01T00:00:00+00:00</time>
        <ele>1263.0</ele>
      </trkpt>
    </trkseg>
  </trk>
</gpx>
